User: anonymous   Login
Location: Payette
(44.0782°N, 116.9338°W)
Time: 16:50:26
(UTC-06:00)
Language:

N. Korean satellite - Orbit

View from above orbital plane
View from above orbital plane
View from above satellite
View from above satellite

Ground track
Ground track

The orbit data is extracted from the following two-line orbital elements,

1 39026U 12072A   19107.96379019 +.00001563 +00000-0 +59407-4 0  9998
2 39026 097.2118 113.1177 0037116 323.0195 036.8487 15.27649279352112
Epoch (UTC): 17 April 2019 23:07:51
Eccentricity: 0.0037116
inclination: 97.2118°
perigee height: 457 km
apogee height: 508 km
right ascension of ascending node: 113.1177°
argument of perigee: 323.0195°
revolutions per day: 15.27649279
mean anomaly at epoch: 36.8487°
orbit number at epoch: 35211

The dashed part of the orbit path shows where the satellite is in the earth's shadow,  

DLR